TimeMST,TemperatureF,Dew PointF,Humidity,Sea Level PressureIn,VisibilityMPH,Wind Direction,Wind SpeedMPH,Gust SpeedMPH,PrecipitationIn,Events,Conditions,WindDirDegrees,DateUTC
12:53 AM,18.0,12.9,81,30.15,10.0,WSW,10.4,-,N/A,,Clear,250,2013-01-25 07:53:00
1:53 AM,18.0,12.9,81,30.15,10.0,West,6.9,-,N/A,,Clear,270,2013-01-25 08:53:00
2:53 AM,14.0,10.9,88,30.15,10.0,Calm,Calm,-,N/A,,Clear,0,2013-01-25 09:53:00
3:53 AM,8.1,5.0,87,30.16,9.0,South,3.5,-,N/A,,Clear,190,2013-01-25 10:53:00
4:53 AM,6.1,1.9,83,30.17,10.0,Calm,Calm,-,N/A,,Clear,0,2013-01-25 11:53:00
5:53 AM,3.0,-0.0,87,30.18,10.0,ENE,9.2,-,N/A,,Clear,60,2013-01-25 12:53:00
6:53 AM,6.1,3.0,87,30.19,10.0,ENE,8.1,-,N/A,,Clear,70,2013-01-25 13:53:00
7:53 AM,5.0,1.9,87,30.19,7.0,East,8.1,-,N/A,,Scattered Clouds,80,2013-01-25 14:53:00
8:09 AM,6.8,3.2,85,30.07,4.0,ENE,6.9,-,N/A,,Mostly Cloudy,60,2013-01-25 15:09:00
8:24 AM,6.8,3.2,85,30.07,2.0,ENE,6.9,-,N/A,,Overcast,70,2013-01-25 15:24:00
8:40 AM,8.6,5.0,85,30.07,4.0,East,8.1,-,N/A,,Mostly Cloudy,80,2013-01-25 15:40:00
8:49 AM,8.6,6.8,92,30.08,4.0,East,5.8,-,N/A,,Scattered Clouds,80,2013-01-25 15:49:00
8:53 AM,8.1,6.1,92,30.20,5.0,East,5.8,-,N/A,,Partly Cloudy,80,2013-01-25 15:53:00
9:53 AM,10.0,7.0,87,30.20,6.0,ENE,11.5,-,N/A,,Clear,70,2013-01-25 16:53:00
10:53 AM,12.9,9.0,84,30.18,7.0,East,11.5,-,N/A,,Clear,80,2013-01-25 17:53:00
11:53 AM,15.1,10.0,80,30.16,7.0,ENE,12.7,-,N/A,,Clear,70,2013-01-25 18:53:00
12:53 PM,17.1,12.0,81,30.14,8.0,East,12.7,-,N/A,,Clear,80,2013-01-25 19:53:00
1:53 PM,18.0,12.0,78,30.10,8.0,ENE,10.4,-,N/A,,Clear,60,2013-01-25 20:53:00
2:53 PM,18.0,12.0,78,30.09,7.0,ENE,11.5,-,N/A,,Clear,60,2013-01-25 21:53:00
3:53 PM,18.0,12.0,78,30.09,7.0,ENE,8.1,-,N/A,,Clear,60,2013-01-25 22:53:00
4:53 PM,16.0,10.9,81,30.08,7.0,ENE,4.6,-,N/A,,Clear,60,2013-01-25 23:53:00
5:53 PM,15.1,10.9,84,30.08,9.0,East,3.5,-,N/A,,Clear,80,2013-01-26 00:53:00
6:53 PM,14.0,10.9,88,30.05,8.0,East,3.5,-,N/A,,Clear,90,2013-01-26 01:53:00
7:53 PM,12.0,9.0,88,30.05,8.0,Calm,Calm,-,N/A,,Clear,0,2013-01-26 02:53:00
8:53 PM,12.9,9.0,84,30.04,8.0,Calm,Calm,-,N/A,,Clear,0,2013-01-26 03:53:00
9:53 PM,12.0,9.0,88,30.03,7.0,NE,3.5,-,N/A,,Clear,40,2013-01-26 04:53:00
10:53 PM,9.0,6.1,88,30.03,8.0,Calm,Calm,-,N/A,,Clear,0,2013-01-26 05:53:00
11:53 PM,9.0,7.0,92,30.01,8.0,North,3.5,-,N/A,,Clear,10,2013-01-26 06:53:00